Time,TemperatureF,DewpointF,PressureIn,WindDirection,WindDirectionDegrees,WindSpeedMPH,WindSpeedGustMPH,Humidity,HourlyPrecipIn,Conditions,Clouds,dailyrainin,SoftwareType,DateUTC
2013-01-24 00:05:00,15.1,8.6,30.05,West,270,0.0,0.0,75,0.00,,,-99.99,open2300 version1.11,2013-01-24 05:05:00,
2013-01-24 00:10:00,15.1,8.6,30.05,West,270,0.0,0.0,75,0.00,,,-99.99,open2300 version1.11,2013-01-24 05:10:00,
2013-01-24 00:15:00,15.3,9.0,30.05,West,270,0.0,0.0,76,0.00,,,-99.99,open2300 version1.11,2013-01-24 05:15:00,
2013-01-24 00:20:00,15.1,8.8,30.05,West,270,0.0,0.0,76,0.00,,,-99.99,open2300 version1.11,2013-01-24 05:20:00,
2013-01-24 00:25:00,15.1,8.8,30.06,West,270,0.0,0.0,76,0.00,,,-99.99,open2300 version1.11,2013-01-24 05:25:00,
2013-01-24 00:30:00,15.1,8.8,30.06,West,270,0.0,0.0,76,0.00,,,-99.99,open2300 version1.11,2013-01-24 05:30:00,
2013-01-24 00:35:00,15.1,8.8,30.06,West,270,0.0,0.0,76,0.00,,,-99.99,open2300 version1.11,2013-01-24 05:35:00,
2013-01-24 00:40:00,15.1,8.8,30.06,West,270,0.0,0.0,76,0.00,,,-99.99,open2300 version1.11,2013-01-24 05:40:00,
2013-01-24 00:45:00,14.9,8.7,30.07,West,270,0.0,0.0,76,0.00,,,-99.99,open2300 version1.11,2013-01-24 05:45:00,
2013-01-24 00:50:00,14.9,8.7,30.07,West,270,0.0,0.0,76,0.00,,,-99.99,open2300 version1.11,2013-01-24 05:50:00,
2013-01-24 00:55:00,14.7,8.5,30.07,West,270,0.0,0.0,76,0.00,,,-99.99,open2300 version1.11,2013-01-24 05:55:00,
2013-01-24 01:00:00,14.9,8.7,30.07,West,270,0.0,0.0,76,0.00,,,-99.99,open2300 version1.11,2013-01-24 06:00:00,
2013-01-24 01:05:00,14.9,8.7,30.07,WSW,247,0.0,0.0,76,0.00,,,-99.99,open2300 version1.11,2013-01-24 06:05:00,
2013-01-24 01:10:00,14.7,8.5,30.08,West,270,0.0,0.0,76,0.00,,,-99.99,open2300 version1.11,2013-01-24 06:10:00,
2013-01-24 01:20:00,14.9,9.0,30.09,NNW,337,0.0,0.0,77,0.00,,,-99.99,open2300 version1.11,2013-01-24 06:20:00,
2013-01-24 01:25:00,14.9,9.0,30.09,North,0,0.0,0.0,77,0.00,,,-99.99,open2300 version1.11,2013-01-24 06:25:00,
2013-01-24 01:30:00,14.7,8.8,30.09,WNW,292,0.0,0.0,77,0.00,,,-99.99,open2300 version1.11,2013-01-24 06:30:00,
2013-01-24 01:35:00,14.7,8.8,30.10,WNW,292,0.0,0.0,77,0.00,,,-99.99,open2300 version1.11,2013-01-24 06:35:00,
2013-01-24 01:40:00,14.7,8.8,30.10,North,0,0.0,0.0,77,0.00,,,-99.99,open2300 version1.11,2013-01-24 06:40:00,
2013-01-24 01:45:00,14.5,8.3,30.11,NNW,337,0.0,0.0,76,0.00,,,-99.99,open2300 version1.11,2013-01-24 06:45:00,
2013-01-24 01:50:00,14.4,8.2,30.11,NNW,337,0.0,0.0,76,0.00,,,-99.99,open2300 version1.11,2013-01-24 06:50:00,
2013-01-24 01:55:00,14.2,8.0,30.11,NNW,337,0.0,0.0,76,0.00,,,-99.99,open2300 version1.11,2013-01-24 06:55:00,
2013-01-24 02:00:00,14.0,7.8,30.12,NW,315,0.0,0.0,76,0.00,,,-99.99,open2300 version1.11,2013-01-24 07:00:00,
2013-01-24 02:10:00,13.8,7.6,30.13,NNW,337,0.0,0.0,76,0.00,,,-99.99,open2300 version1.11,2013-01-24 07:10:00,
2013-01-24 02:15:00,13.8,7.6,30.13,West,270,0.0,0.0,76,0.00,,,-99.99,open2300 version1.11,2013-01-24 07:15:00,
2013-01-24 02:25:00,13.6,7.5,30.14,NNW,337,0.0,0.0,76,0.00,,,-99.99,open2300 version1.11,2013-01-24 07:25:00,
2013-01-24 02:30:00,13.6,7.7,30.14,West,270,0.0,0.0,77,0.00,,,-99.99,open2300 version1.11,2013-01-24 07:30:00,
2013-01-24 02:35:00,13.8,7.9,30.14,West,270,0.0,0.0,77,0.00,,,-99.99,open2300 version1.11,2013-01-24 07:35:00,
2013-01-24 02:45:00,13.8,7.9,30.15,NW,315,0.0,0.0,77,0.00,,,-99.99,open2300 version1.11,2013-01-24 07:45:00,
2013-01-24 02:55:00,13.6,7.7,30.16,WNW,292,0.0,0.0,77,0.00,,,-99.99,open2300 version1.11,2013-01-24 07:55:00,
2013-01-24 03:00:00,13.6,7.7,30.16,WNW,292,0.0,0.0,77,0.00,,,-99.99,open2300 version1.11,2013-01-24 08:00:00,
2013-01-24 03:10:00,13.6,7.7,30.17,WNW,292,0.0,0.0,77,0.00,,,-99.99,open2300 version1.11,2013-01-24 08:10:00,
2013-01-24 03:20:00,13.3,7.4,30.18,West,270,0.0,0.0,77,0.00,,,-99.99,open2300 version1.11,2013-01-24 08:20:00,
2013-01-24 03:30:00,12.9,7.0,30.19,NW,315,0.0,0.0,77,0.00,,,-99.99,open2300 version1.11,2013-01-24 08:30:00,
2013-01-24 03:35:00,12.7,6.8,30.19,West,270,0.0,0.0,77,0.00,,,-99.99,open2300 version1.11,2013-01-24 08:35:00,
2013-01-24 03:40:00,12.6,6.4,30.20,West,270,0.0,0.0,76,0.00,,,-99.99,open2300 version1.11,2013-01-24 08:40:00,
2013-01-24 03:45:00,12.4,6.2,30.20,West,270,0.0,0.0,76,0.00,,,-99.99,open2300 version1.11,2013-01-24 08:45:00,
2013-01-24 03:50:00,12.0,6.1,30.20,West,270,0.0,0.0,77,0.00,,,-99.99,open2300 version1.11,2013-01-24 08:50:00,
2013-01-24 03:55:00,12.0,6.1,30.20,West,270,0.0,0.0,77,0.00,,,-99.99,open2300 version1.11,2013-01-24 08:55:00,
2013-01-24 04:00:00,11.8,5.9,30.20,West,270,0.0,0.0,77,0.00,,,-99.99,open2300 version1.11,2013-01-24 09:00:00,
2013-01-24 04:10:00,11.5,5.6,30.22,West,270,0.0,0.0,77,0.00,,,-99.99,open2300 version1.11,2013-01-24 09:10:00,
2013-01-24 04:20:00,11.3,5.4,30.22,WNW,292,0.0,0.0,77,0.00,,,-99.99,open2300 version1.11,2013-01-24 09:20:00,
2013-01-24 04:25:00,11.1,5.2,30.22,WNW,292,0.0,0.0,77,0.00,,,-99.99,open2300 version1.11,2013-01-24 09:25:00,
2013-01-24 04:30:00,11.1,5.2,30.23,NNW,337,0.0,0.0,77,0.00,,,-99.99,open2300 version1.11,2013-01-24 09:30:00,
2013-01-24 04:35:00,11.1,5.2,30.23,West,270,0.0,0.0,77,0.00,,,-99.99,open2300 version1.11,2013-01-24 09:35:00,
2013-01-24 04:45:00,10.9,5.0,30.24,West,270,0.0,0.0,77,0.00,,,-99.99,open2300 version1.11,2013-01-24 09:45:00,
2013-01-24 04:55:00,10.8,4.9,30.25,West,270,0.0,0.0,77,0.00,,,-99.99,open2300 version1.11,2013-01-24 09:55:00,
2013-01-24 05:00:00,10.8,4.9,30.25,West,270,0.0,0.0,77,0.00,,,-99.99,open2300 version1.11,2013-01-24 10:00:00,
2013-01-24 05:05:00,10.6,4.7,30.26,West,270,0.0,0.0,77,0.00,,,-99.99,open2300 version1.11,2013-01-24 10:05:00,
2013-01-24 05:15:00,10.6,4.7,30.26,WNW,292,0.0,0.0,77,0.00,,,-99.99,open2300 version1.11,2013-01-24 10:15:00,
2013-01-24 05:20:00,10.4,4.5,30.27,West,270,0.0,0.0,77,0.00,,,-99.99,open2300 version1.11,2013-01-24 10:20:00,
2013-01-24 05:25:00,10.2,4.3,30.27,West,270,0.0,0.0,77,0.00,,,-99.99,open2300 version1.11,2013-01-24 10:25:00,
2013-01-24 05:30:00,10.2,4.6,30.28,West,270,0.0,0.0,78,0.00,,,-99.99,open2300 version1.11,2013-01-24 10:30:00,
2013-01-24 05:35:00,10.2,4.6,30.28,WNW,292,0.0,0.0,78,0.00,,,-99.99,open2300 version1.11,2013-01-24 10:35:00,
2013-01-24 05:40:00,10.2,4.6,30.29,WNW,292,0.0,0.0,78,0.00,,,-99.99,open2300 version1.11,2013-01-24 10:40:00,
2013-01-24 05:45:00,10.2,4.6,30.29,West,270,0.0,0.0,78,0.00,,,-99.99,open2300 version1.11,2013-01-24 10:45:00,
2013-01-24 05:50:00,10.2,4.6,30.29,WNW,292,0.0,0.0,78,0.00,,,-99.99,open2300 version1.11,2013-01-24 10:50:00,
2013-01-24 06:00:00,10.0,4.5,30.30,WNW,292,0.0,0.0,78,0.00,,,-99.99,open2300 version1.11,2013-01-24 11:00:00,
2013-01-24 06:05:00,10.0,4.5,30.30,West,270,0.0,0.0,78,0.00,,,-99.99,open2300 version1.11,2013-01-24 11:05:00,
2013-01-24 06:10:00,10.0,4.5,30.31,WNW,292,0.0,0.0,78,0.00,,,-99.99,open2300 version1.11,2013-01-24 11:10:00,
2013-01-24 06:20:00,9.7,4.1,30.31,West,270,0.0,0.0,78,0.00,,,-99.99,open2300 version1.11,2013-01-24 11:20:00,
2013-01-24 06:25:00,9.7,4.1,30.32,NW,315,0.0,0.0,78,0.00,,,-99.99,open2300 version1.11,2013-01-24 11:25:00,
2013-01-24 06:35:00,9.7,4.1,30.33,WNW,292,0.0,0.0,78,0.00,,,-99.99,open2300 version1.11,2013-01-24 11:35:00,
2013-01-24 06:40:00,9.7,4.1,30.33,NW,315,0.0,0.0,78,0.00,,,-99.99,open2300 version1.11,2013-01-24 11:40:00,
2013-01-24 06:45:00,9.5,4.0,30.34,WNW,292,0.0,0.0,78,0.00,,,-99.99,open2300 version1.11,2013-01-24 11:45:00,
2013-01-24 06:50:00,9.5,4.0,30.34,WNW,292,0.0,0.0,78,0.00,,,-99.99,open2300 version1.11,2013-01-24 11:50:00,
2013-01-24 07:00:00,9.1,3.4,30.34,North,0,0.0,0.0,77,0.00,,,-99.99,open2300 version1.11,2013-01-24 12:00:00,
2013-01-24 07:05:00,9.1,3.4,30.35,West,270,0.0,0.0,77,0.00,,,-99.99,open2300 version1.11,2013-01-24 12:05:00,
2013-01-24 07:15:00,9.0,3.5,30.35,West,270,0.0,0.0,78,0.00,,,-99.99,open2300 version1.11,2013-01-24 12:15:00,
2013-01-24 07:25:00,9.0,3.5,30.37,WNW,292,0.0,0.0,78,0.00,,,-99.99,open2300 version1.11,2013-01-24 12:25:00,
2013-01-24 07:30:00,9.0,3.5,30.37,NNW,337,0.0,0.0,78,0.00,,,-99.99,open2300 version1.11,2013-01-24 12:30:00,
2013-01-24 07:35:00,9.0,3.5,30.38,West,270,0.0,0.0,78,0.00,,,-99.99,open2300 version1.11,2013-01-24 12:35:00,
2013-01-24 07:45:00,9.0,3.2,30.38,NNW,337,0.0,0.0,77,0.00,,,-99.99,open2300 version1.11,2013-01-24 12:45:00,
2013-01-24 07:50:00,9.0,3.2,30.39,West,270,0.0,0.0,77,0.00,,,-99.99,open2300 version1.11,2013-01-24 12:50:00,
2013-01-24 07:55:00,9.0,3.2,30.39,West,270,0.0,0.0,77,0.00,,,-99.99,open2300 version1.11,2013-01-24 12:55:00,
2013-01-24 08:00:00,8.8,3.0,30.40,NNW,337,0.0,0.0,77,0.00,,,-99.99,open2300 version1.11,2013-01-24 13:00:00,
2013-01-24 08:05:00,8.8,3.0,30.40,WNW,292,0.0,0.0,77,0.00,,,-99.99,open2300 version1.11,2013-01-24 13:05:00,
2013-01-24 08:10:00,8.8,3.0,30.40,WNW,292,0.0,0.0,77,0.00,,,-99.99,open2300 version1.11,2013-01-24 13:10:00,
2013-01-24 08:20:00,9.0,3.2,30.40,WNW,292,0.0,0.0,77,0.00,,,-99.99,open2300 version1.11,2013-01-24 13:20:00,
2013-01-24 08:30:00,9.0,3.2,30.41,North,0,0.0,0.0,77,0.00,,,-99.99,open2300 version1.11,2013-01-24 13:30:00,
2013-01-24 08:35:00,9.0,3.2,30.41,WNW,292,0.0,0.0,77,0.00,,,-99.99,open2300 version1.11,2013-01-24 13:35:00,
2013-01-24 08:40:00,9.1,3.4,30.42,West,270,0.0,0.0,77,0.00,,,-99.99,open2300 version1.11,2013-01-24 13:40:00,
2013-01-24 08:50:00,9.5,4.0,30.42,North,0,0.0,0.0,78,0.00,,,-99.99,open2300 version1.11,2013-01-24 13:50:00,
2013-01-24 08:55:00,10.0,4.2,30.42,North,0,0.0,0.0,77,0.00,,,-99.99,open2300 version1.11,2013-01-24 13:55:00,
2013-01-24 09:05:00,10.2,4.3,30.43,WNW,292,0.0,0.0,77,0.00,,,-99.99,open2300 version1.11,2013-01-24 14:05:00,
2013-01-24 09:10:00,10.6,4.7,30.43,NNE,22,0.0,0.0,77,0.00,,,-99.99,open2300 version1.11,2013-01-24 14:10:00,
2013-01-24 09:15:00,10.8,4.9,30.43,WNW,292,0.0,0.0,77,0.00,,,-99.99,open2300 version1.11,2013-01-24 14:15:00,
2013-01-24 09:20:00,10.9,5.0,30.43,NNW,337,0.0,0.0,77,0.00,,,-99.99,open2300 version1.11,2013-01-24 14:20:00,
2013-01-24 09:25:00,11.1,5.2,30.44,NNE,22,0.0,0.0,77,0.00,,,-99.99,open2300 version1.11,2013-01-24 14:25:00,
2013-01-24 09:30:00,11.3,5.4,30.45,NNE,22,0.0,0.0,77,0.00,,,-99.99,open2300 version1.11,2013-01-24 14:30:00,
2013-01-24 09:35:00,11.3,5.1,30.45,NNE,22,0.0,0.0,76,0.00,,,-99.99,open2300 version1.11,2013-01-24 14:35:00,
2013-01-24 09:45:00,11.7,5.5,30.46,North,0,0.0,0.0,76,0.00,,,-99.99,open2300 version1.11,2013-01-24 14:45:00,
2013-01-24 09:50:00,11.8,5.7,30.47,North,0,0.0,0.0,76,0.00,,,-99.99,open2300 version1.11,2013-01-24 14:50:00,
2013-01-24 09:55:00,12.0,5.8,30.47,NNE,22,0.0,0.0,76,0.00,,,-99.99,open2300 version1.11,2013-01-24 14:55:00,
2013-01-24 10:00:00,12.4,5.9,30.47,NNE,22,0.0,0.0,75,0.00,,,-99.99,open2300 version1.11,2013-01-24 15:00:00,
2013-01-24 10:05:00,12.6,6.1,30.48,WNW,292,0.0,0.0,75,0.00,,,-99.99,open2300 version1.11,2013-01-24 15:05:00,
2013-01-24 10:10:00,12.9,6.4,30.48,NNE,22,0.0,0.0,75,0.00,,,-99.99,open2300 version1.11,2013-01-24 15:10:00,
2013-01-24 10:15:00,13.1,6.6,30.48,West,270,0.0,0.0,75,0.00,,,-99.99,open2300 version1.11,2013-01-24 15:15:00,
2013-01-24 10:20:00,13.6,7.2,30.49,North,0,0.0,0.0,75,0.00,,,-99.99,open2300 version1.11,2013-01-24 15:20:00,
2013-01-24 10:25:00,13.6,6.9,30.50,NNE,22,0.0,0.0,74,0.00,,,-99.99,open2300 version1.11,2013-01-24 15:25:00,
2013-01-24 10:30:00,13.8,7.0,30.50,North,0,0.0,0.0,74,0.00,,,-99.99,open2300 version1.11,2013-01-24 15:30:00,
2013-01-24 10:35:00,14.2,7.4,30.50,North,0,0.0,0.0,74,0.00,,,-99.99,open2300 version1.11,2013-01-24 15:35:00,
2013-01-24 10:45:00,14.4,7.3,30.50,NE,45,0.0,0.0,73,0.00,,,-99.99,open2300 version1.11,2013-01-24 15:45:00,
2013-01-24 10:55:00,14.7,7.6,30.50,NNE,22,0.0,0.0,73,0.00,,,-99.99,open2300 version1.11,2013-01-24 15:55:00,
2013-01-24 11:00:00,14.7,7.6,30.51,ENE,67,0.0,0.0,73,0.00,,,-99.99,open2300 version1.11,2013-01-24 16:00:00,
2013-01-24 11:10:00,15.3,7.8,30.51,NW,315,0.0,0.0,72,0.00,,,-99.99,open2300 version1.11,2013-01-24 16:10:00,
2013-01-24 11:15:00,15.6,8.1,30.51,WSW,247,0.0,0.0,72,0.00,,,-99.99,open2300 version1.11,2013-01-24 16:15:00,
2013-01-24 11:20:00,16.0,8.5,30.52,West,270,0.0,0.0,72,0.00,,,-99.99,open2300 version1.11,2013-01-24 16:20:00,
2013-01-24 11:25:00,16.3,8.8,30.51,WNW,292,0.0,0.0,72,0.00,,,-99.99,open2300 version1.11,2013-01-24 16:25:00,
2013-01-24 11:30:00,16.9,9.1,30.51,NNE,22,0.0,0.0,71,0.00,,,-99.99,open2300 version1.11,2013-01-24 16:30:00,
2013-01-24 11:35:00,16.9,9.1,30.51,SE,135,0.0,0.0,71,0.00,,,-99.99,open2300 version1.11,2013-01-24 16:35:00,
2013-01-24 11:40:00,17.2,9.1,30.51,NNE,22,0.0,0.0,70,0.00,,,-99.99,open2300 version1.11,2013-01-24 16:40:00,
2013-01-24 11:45:00,17.2,9.1,30.51,WNW,292,0.0,0.0,70,0.00,,,-99.99,open2300 version1.11,2013-01-24 16:45:00,
2013-01-24 11:50:00,17.8,9.7,30.51,NNE,22,0.0,0.0,70,0.00,,,-99.99,open2300 version1.11,2013-01-24 16:50:00,
2013-01-24 11:55:00,17.8,9.0,30.50,North,0,0.0,0.0,68,0.00,,,-99.99,open2300 version1.11,2013-01-24 16:55:00,
2013-01-24 12:05:00,18.1,9.3,30.50,West,270,0.0,0.0,68,0.00,,,-99.99,open2300 version1.11,2013-01-24 17:05:00,
2013-01-24 12:10:00,18.5,9.3,30.50,SW,225,0.0,0.0,67,0.00,,,-99.99,open2300 version1.11,2013-01-24 17:10:00,
2013-01-24 12:15:00,18.7,9.4,30.50,WNW,292,0.0,0.0,67,0.00,,,-99.99,open2300 version1.11,2013-01-24 17:15:00,
2013-01-24 12:20:00,19.0,9.4,30.50,West,270,0.0,0.0,66,0.00,,,-99.99,open2300 version1.11,2013-01-24 17:20:00,
2013-01-24 12:25:00,19.2,9.6,30.50,West,270,0.0,0.0,66,0.00,,,-99.99,open2300 version1.11,2013-01-24 17:25:00,
2013-01-24 12:30:00,19.6,9.6,30.50,NNE,22,0.0,0.0,65,0.00,,,-99.99,open2300 version1.11,2013-01-24 17:30:00,
2013-01-24 12:35:00,19.6,8.9,30.50,NNE,22,0.0,0.0,63,0.00,,,-99.99,open2300 version1.11,2013-01-24 17:35:00,
2013-01-24 12:40:00,19.4,8.7,30.49,SE,135,0.0,0.0,63,0.00,,,-99.99,open2300 version1.11,2013-01-24 17:40:00,
2013-01-24 12:50:00,19.8,9.1,30.49,WNW,292,0.0,0.0,63,0.00,,,-99.99,open2300 version1.11,2013-01-24 17:50:00,
2013-01-24 12:55:00,19.9,8.9,30.49,WNW,292,0.0,0.0,62,0.00,,,-99.99,open2300 version1.11,2013-01-24 17:55:00,
2013-01-24 13:00:00,19.9,8.9,30.49,West,270,0.0,0.0,62,0.00,,,-99.99,open2300 version1.11,2013-01-24 18:00:00,
2013-01-24 13:05:00,20.1,9.1,30.49,West,270,0.0,0.0,62,0.00,,,-99.99,open2300 version1.11,2013-01-24 18:05:00,
2013-01-24 13:10:00,20.1,8.8,30.50,West,270,0.0,0.0,61,0.00,,,-99.99,open2300 version1.11,2013-01-24 18:10:00,
2013-01-24 13:15:00,20.3,8.9,30.49,WNW,292,0.0,0.0,61,0.00,,,-99.99,open2300 version1.11,2013-01-24 18:15:00,
2013-01-24 13:25:00,20.8,9.5,30.49,WNW,292,0.0,0.0,61,0.00,,,-99.99,open2300 version1.11,2013-01-24 18:25:00,
2013-01-24 13:30:00,20.8,9.1,30.49,SW,225,0.0,0.0,60,0.00,,,-99.99,open2300 version1.11,2013-01-24 18:30:00,
2013-01-24 13:35:00,20.8,9.1,30.49,WNW,292,0.0,0.0,60,0.00,,,-99.99,open2300 version1.11,2013-01-24 18:35:00,
2013-01-24 13:40:00,20.8,9.1,30.48,SW,225,0.0,0.0,60,0.00,,,-99.99,open2300 version1.11,2013-01-24 18:40:00,
2013-01-24 13:45:00,20.8,9.1,30.49,NNW,337,0.0,0.0,60,0.00,,,-99.99,open2300 version1.11,2013-01-24 18:45:00,
2013-01-24 13:50:00,20.8,8.3,30.49,NNE,22,0.0,0.0,58,0.00,,,-99.99,open2300 version1.11,2013-01-24 18:50:00,
2013-01-24 13:55:00,20.8,8.3,30.49,WSW,247,0.0,0.0,58,0.00,,,-99.99,open2300 version1.11,2013-01-24 18:55:00,
2013-01-24 14:00:00,20.8,8.3,30.48,West,270,0.0,0.0,58,0.00,,,-99.99,open2300 version1.11,2013-01-24 19:00:00,
2013-01-24 14:05:00,20.8,8.7,30.49,West,270,0.0,0.0,59,0.00,,,-99.99,open2300 version1.11,2013-01-24 19:05:00,
2013-01-24 14:10:00,20.8,8.7,30.49,SW,225,0.0,0.0,59,0.00,,,-99.99,open2300 version1.11,2013-01-24 19:10:00,
2013-01-24 14:20:00,20.8,8.3,30.48,WNW,292,0.0,0.0,58,0.00,,,-99.99,open2300 version1.11,2013-01-24 19:20:00,
2013-01-24 14:25:00,20.8,8.3,30.49,WSW,247,0.0,0.0,58,0.00,,,-99.99,open2300 version1.11,2013-01-24 19:25:00,
2013-01-24 14:30:00,20.8,8.3,30.49,SE,135,0.0,0.0,58,0.00,,,-99.99,open2300 version1.11,2013-01-24 19:30:00,
2013-01-24 14:35:00,20.8,7.9,30.49,WSW,247,0.0,0.0,57,0.00,,,-99.99,open2300 version1.11,2013-01-24 19:35:00,
2013-01-24 14:40:00,20.5,7.6,30.48,West,270,0.0,0.0,57,0.00,,,-99.99,open2300 version1.11,2013-01-24 19:40:00,
2013-01-24 14:45:00,20.5,7.6,30.49,West,270,0.0,0.0,57,0.00,,,-99.99,open2300 version1.11,2013-01-24 19:45:00,
2013-01-24 14:50:00,20.3,7.4,30.49,North,0,0.0,0.0,57,0.00,,,-99.99,open2300 version1.11,2013-01-24 19:50:00,
2013-01-24 14:55:00,20.1,6.8,30.49,NNW,337,0.0,0.0,56,0.00,,,-99.99,open2300 version1.11,2013-01-24 19:55:00,
2013-01-24 15:00:00,19.9,6.6,30.48,North,0,0.0,0.0,56,0.00,,,-99.99,open2300 version1.11,2013-01-24 20:00:00,
2013-01-24 15:10:00,19.2,5.6,30.49,NNW,337,0.0,0.0,55,0.00,,,-99.99,open2300 version1.11,2013-01-24 20:10:00,
2013-01-24 15:20:00,19.0,5.4,30.49,NW,315,0.0,0.0,55,0.00,,,-99.99,open2300 version1.11,2013-01-24 20:20:00,
2013-01-24 15:30:00,18.7,5.1,30.49,North,0,0.0,0.0,55,0.00,,,-99.99,open2300 version1.11,2013-01-24 20:30:00,
2013-01-24 15:35:00,18.7,5.1,30.49,North,0,0.0,0.0,55,0.00,,,-99.99,open2300 version1.11,2013-01-24 20:35:00,
2013-01-24 15:45:00,18.3,4.8,30.49,NNW,337,0.0,0.0,55,0.00,,,-99.99,open2300 version1.11,2013-01-24 20:45:00,
2013-01-24 15:50:00,18.3,4.8,30.49,WNW,292,0.0,0.0,55,0.00,,,-99.99,open2300 version1.11,2013-01-24 20:50:00,
2013-01-24 16:00:00,18.1,4.6,30.50,West,270,0.0,0.0,55,0.00,,,-99.99,open2300 version1.11,2013-01-24 21:00:00,
2013-01-24 16:05:00,17.8,4.3,30.50,NW,315,0.0,0.0,55,0.00,,,-99.99,open2300 version1.11,2013-01-24 21:05:00,
2013-01-24 16:10:00,17.8,4.3,30.50,NNW,337,0.0,0.0,55,0.00,,,-99.99,open2300 version1.11,2013-01-24 21:10:00,
2013-01-24 16:20:00,17.4,3.9,30.50,West,270,0.0,0.0,55,0.00,,,-99.99,open2300 version1.11,2013-01-24 21:20:00,
2013-01-24 16:25:00,17.4,3.9,30.50,West,270,0.0,0.0,55,0.00,,,-99.99,open2300 version1.11,2013-01-24 21:25:00,
2013-01-24 16:35:00,17.4,4.3,30.50,WNW,292,0.0,0.0,56,0.00,,,-99.99,open2300 version1.11,2013-01-24 21:35:00,
2013-01-24 16:40:00,17.2,4.1,30.50,WNW,292,0.0,0.0,56,0.00,,,-99.99,open2300 version1.11,2013-01-24 21:40:00,
2013-01-24 16:45:00,17.2,4.1,30.50,WNW,292,0.0,0.0,56,0.00,,,-99.99,open2300 version1.11,2013-01-24 21:45:00,
2013-01-24 16:50:00,16.9,3.8,30.50,WNW,292,0.0,0.0,56,0.00,,,-99.99,open2300 version1.11,2013-01-24 21:50:00,
2013-01-24 16:55:00,16.7,3.6,30.50,WNW,292,0.0,0.0,56,0.00,,,-99.99,open2300 version1.11,2013-01-24 21:55:00,
2013-01-24 17:05:00,16.5,3.5,30.50,WNW,292,0.0,0.0,56,0.00,,,-99.99,open2300 version1.11,2013-01-24 22:05:00,
2013-01-24 17:10:00,16.3,3.7,30.50,WNW,292,0.0,0.0,57,0.00,,,-99.99,open2300 version1.11,2013-01-24 22:10:00,
2013-01-24 17:15:00,16.2,3.5,30.50,WNW,292,0.0,0.0,57,0.00,,,-99.99,open2300 version1.11,2013-01-24 22:15:00,
2013-01-24 17:20:00,16.0,3.3,30.50,WNW,292,0.0,0.0,57,0.00,,,-99.99,open2300 version1.11,2013-01-24 22:20:00,
2013-01-24 17:25:00,15.8,2.8,30.50,WNW,292,0.0,0.0,56,0.00,,,-99.99,open2300 version1.11,2013-01-24 22:25:00,
2013-01-24 17:30:00,15.6,2.6,30.50,WNW,292,0.0,0.0,56,0.00,,,-99.99,open2300 version1.11,2013-01-24 22:30:00,
2013-01-24 17:35:00,15.4,2.4,30.49,WNW,292,0.0,0.0,56,0.00,,,-99.99,open2300 version1.11,2013-01-24 22:35:00,
2013-01-24 17:40:00,15.1,2.1,30.49,WNW,292,0.0,0.0,56,0.00,,,-99.99,open2300 version1.11,2013-01-24 22:40:00,
2013-01-24 17:45:00,14.9,1.9,30.49,WNW,292,0.0,0.0,56,0.00,,,-99.99,open2300 version1.11,2013-01-24 22:45:00,
2013-01-24 17:50:00,14.7,1.7,30.49,WNW,292,0.0,0.0,56,0.00,,,-99.99,open2300 version1.11,2013-01-24 22:50:00,
2013-01-24 17:55:00,14.7,1.7,30.49,WNW,292,0.0,0.0,56,0.00,,,-99.99,open2300 version1.11,2013-01-24 22:55:00,
2013-01-24 18:00:00,14.4,1.4,30.49,WNW,292,0.0,0.0,56,0.00,,,-99.99,open2300 version1.11,2013-01-24 23:00:00,
2013-01-24 18:05:00,14.0,1.1,30.49,WNW,292,0.0,0.0,56,0.00,,,-99.99,open2300 version1.11,2013-01-24 23:05:00,
2013-01-24 18:15:00,13.6,0.7,30.49,WNW,292,0.0,0.0,56,0.00,,,-99.99,open2300 version1.11,2013-01-24 23:15:00,
2013-01-24 18:20:00,13.5,0.6,30.49,WNW,292,0.0,0.0,56,0.00,,,-99.99,open2300 version1.11,2013-01-24 23:20:00,
2013-01-24 18:25:00,13.3,0.4,30.49,WNW,292,0.0,0.0,56,0.00,,,-99.99,open2300 version1.11,2013-01-24 23:25:00,
2013-01-24 18:30:00,13.1,0.6,30.48,WNW,292,0.0,0.0,57,0.00,,,-99.99,open2300 version1.11,2013-01-24 23:30:00,
2013-01-24 18:35:00,13.1,1.0,30.49,WNW,292,0.0,0.0,58,0.00,,,-99.99,open2300 version1.11,2013-01-24 23:35:00,
2013-01-24 18:40:00,12.9,0.8,30.49,WNW,292,0.0,0.0,58,0.00,,,-99.99,open2300 version1.11,2013-01-24 23:40:00,
2013-01-24 18:45:00,12.7,0.6,30.49,WNW,292,0.0,0.0,58,0.00,,,-99.99,open2300 version1.11,2013-01-24 23:45:00,
2013-01-24 18:50:00,12.7,0.6,30.50,WNW,292,0.0,0.0,58,0.00,,,-99.99,open2300 version1.11,2013-01-24 23:50:00,
2013-01-24 19:00:00,12.4,0.6,30.50,WNW,292,0.0,0.0,59,0.00,,,-99.99,open2300 version1.11,2013-01-25 00:00:00,
2013-01-24 19:05:00,12.2,0.9,30.50,WNW,292,0.0,0.0,60,0.00,,,-99.99,open2300 version1.11,2013-01-25 00:05:00,
2013-01-24 19:15:00,11.8,0.5,30.50,WNW,292,0.0,0.0,60,0.00,,,-99.99,open2300 version1.11,2013-01-25 00:15:00,
2013-01-24 19:20:00,11.5,0.2,30.49,WNW,292,0.0,0.0,60,0.00,,,-99.99,open2300 version1.11,2013-01-25 00:20:00,
2013-01-24 19:25:00,11.5,0.2,30.50,WNW,292,0.0,0.0,60,0.00,,,-99.99,open2300 version1.11,2013-01-25 00:25:00,
2013-01-24 19:30:00,11.3,0.1,30.49,WNW,292,0.0,0.0,60,0.00,,,-99.99,open2300 version1.11,2013-01-25 00:30:00,
2013-01-24 19:40:00,11.3,0.4,30.49,WNW,292,0.0,0.0,61,0.00,,,-99.99,open2300 version1.11,2013-01-25 00:40:00,
2013-01-24 19:45:00,11.1,0.2,30.48,WNW,292,0.0,0.0,61,0.00,,,-99.99,open2300 version1.11,2013-01-25 00:45:00,
2013-01-24 19:50:00,10.9,0.4,30.48,WNW,292,0.0,0.0,62,0.00,,,-99.99,open2300 version1.11,2013-01-25 00:50:00,
2013-01-24 19:55:00,10.8,0.2,30.48,WNW,292,0.0,0.0,62,0.00,,,-99.99,open2300 version1.11,2013-01-25 00:55:00,
2013-01-24 20:00:00,10.8,0.2,30.48,WNW,292,0.0,0.0,62,0.00,,,-99.99,open2300 version1.11,2013-01-25 01:00:00,
2013-01-24 20:05:00,10.8,0.2,30.47,WNW,292,0.0,0.0,62,0.00,,,-99.99,open2300 version1.11,2013-01-25 01:05:00,
2013-01-24 20:15:00,10.9,0.7,30.46,WNW,292,0.0,0.0,63,0.00,,,-99.99,open2300 version1.11,2013-01-25 01:15:00,
2013-01-24 20:25:00,11.1,1.2,30.46,WNW,292,0.0,0.0,64,0.00,,,-99.99,open2300 version1.11,2013-01-25 01:25:00,
2013-01-24 20:35:00,11.5,1.5,30.46,WNW,292,0.0,0.0,64,0.00,,,-99.99,open2300 version1.11,2013-01-25 01:35:00,
2013-01-24 20:40:00,11.7,1.7,30.46,WNW,292,0.0,0.0,64,0.00,,,-99.99,open2300 version1.11,2013-01-25 01:40:00,
2013-01-24 20:45:00,11.8,1.9,30.45,WNW,292,0.0,0.0,64,0.00,,,-99.99,open2300 version1.11,2013-01-25 01:45:00,
2013-01-24 20:50:00,11.8,1.9,30.46,WNW,292,0.0,0.0,64,0.00,,,-99.99,open2300 version1.11,2013-01-25 01:50:00,
2013-01-24 20:55:00,12.0,2.0,30.45,WNW,292,0.0,0.0,64,0.00,,,-99.99,open2300 version1.11,2013-01-25 01:55:00,
2013-01-24 21:00:00,12.0,2.0,30.45,WNW,292,0.0,0.0,64,0.00,,,-99.99,open2300 version1.11,2013-01-25 02:00:00,
2013-01-24 21:05:00,12.0,2.0,30.45,WNW,292,0.0,0.0,64,0.00,,,-99.99,open2300 version1.11,2013-01-25 02:05:00,
2013-01-24 21:10:00,12.2,2.2,30.46,WNW,292,0.0,0.0,64,0.00,,,-99.99,open2300 version1.11,2013-01-25 02:10:00,
2013-01-24 21:15:00,12.2,2.2,30.46,WNW,292,0.0,0.0,64,0.00,,,-99.99,open2300 version1.11,2013-01-25 02:15:00,
2013-01-24 21:20:00,12.2,2.2,30.46,WNW,292,0.0,0.0,64,0.00,,,-99.99,open2300 version1.11,2013-01-25 02:20:00,
2013-01-24 21:30:00,12.4,2.8,30.46,WNW,292,0.0,0.0,65,0.00,,,-99.99,open2300 version1.11,2013-01-25 02:30:00,
2013-01-24 21:35:00,12.4,2.8,30.45,WNW,292,0.0,0.0,65,0.00,,,-99.99,open2300 version1.11,2013-01-25 02:35:00,
2013-01-24 21:45:00,12.4,2.8,30.45,WNW,292,0.0,0.0,65,0.00,,,-99.99,open2300 version1.11,2013-01-25 02:45:00,
2013-01-24 21:50:00,12.4,2.8,30.45,WNW,292,0.0,0.0,65,0.00,,,-99.99,open2300 version1.11,2013-01-25 02:50:00,
2013-01-24 21:55:00,12.4,2.8,30.45,WNW,292,0.0,0.0,65,0.00,,,-99.99,open2300 version1.11,2013-01-25 02:55:00,
2013-01-24 22:05:00,12.6,2.9,30.45,WNW,292,0.0,0.0,65,0.00,,,-99.99,open2300 version1.11,2013-01-25 03:05:00,
2013-01-24 22:10:00,12.4,2.8,30.45,WNW,292,0.0,0.0,65,0.00,,,-99.99,open2300 version1.11,2013-01-25 03:10:00,
2013-01-24 22:15:00,12.6,2.9,30.45,WNW,292,0.0,0.0,65,0.00,,,-99.99,open2300 version1.11,2013-01-25 03:15:00,
2013-01-24 22:20:00,12.6,3.3,30.46,WNW,292,0.0,0.0,66,0.00,,,-99.99,open2300 version1.11,2013-01-25 03:20:00,
2013-01-24 22:30:00,12.6,3.3,30.45,NW,315,0.0,0.0,66,0.00,,,-99.99,open2300 version1.11,2013-01-25 03:30:00,
2013-01-24 22:35:00,12.7,3.5,30.44,ENE,67,0.0,0.0,66,0.00,,,-99.99,open2300 version1.11,2013-01-25 03:35:00,
2013-01-24 22:40:00,12.6,3.3,30.44,ENE,67,0.0,0.0,66,0.00,,,-99.99,open2300 version1.11,2013-01-25 03:40:00,
2013-01-24 22:50:00,12.6,3.3,30.44,ENE,67,0.0,0.0,66,0.00,,,-99.99,open2300 version1.11,2013-01-25 03:50:00,
2013-01-24 23:00:00,12.6,3.3,30.44,ENE,67,0.0,0.0,66,0.00,,,-99.99,open2300 version1.11,2013-01-25 04:00:00,
2013-01-24 23:10:00,12.7,3.5,30.44,ENE,67,0.0,0.0,66,0.00,,,-99.99,open2300 version1.11,2013-01-25 04:10:00,
2013-01-24 23:15:00,12.7,3.5,30.44,ENE,67,0.0,0.0,66,0.00,,,-99.99,open2300 version1.11,2013-01-25 04:15:00,
2013-01-24 23:20:00,12.7,3.5,30.44,ENE,67,0.0,0.0,66,0.00,,,-99.99,open2300 version1.11,2013-01-25 04:20:00,
2013-01-24 23:25:00,12.9,4.0,30.44,ENE,67,0.0,0.0,67,0.00,,,-99.99,open2300 version1.11,2013-01-25 04:25:00,
2013-01-24 23:30:00,12.9,3.6,30.43,ENE,67,0.0,0.0,66,0.00,,,-99.99,open2300 version1.11,2013-01-25 04:30:00,
2013-01-24 23:40:00,13.1,4.0,30.43,ENE,67,0.0,0.0,67,0.00,,,-99.99,open2300 version1.11,2013-01-25 04:40:00,
2013-01-24 23:50:00,13.1,4.2,30.43,ENE,67,0.0,0.0,67,0.00,,,-99.99,open2300 version1.11,2013-01-25 04:50:00,